Theta_e
356 364 371 372 372 371 369 367 366 366 365 367 367 366 366 366 366 368 367 366 365 365 362 360 361 361 361 360 359 360 361 360 360 359 360 359 359 357 359 357 356 352 357
360 365 371 373 373 372 370 369 367 367 366 365 366 365 364 364 364 364 365 365 363 363 362 361 361 361 361 360 360 360 360 361 360 360 360 359 358 357 356 356 356 353 355
359 364 369 371 373 372 371 369 368 366 366 366 366 365 364 365 363 363 363 363 362 362 360 362 362 362 361 361 361 361 361 360 361 360 358 351 352 357 355 354 353 356 353
361 363 367 371 372 372 371 370 369 367 366 366 365 364 363 364 363 362 363 364 362 362 362 361 362 362 361 362 361 361 361 361 359 358 350 352 353 358 355 357 353 357 356
361 364 367 373 373 370 370 370 369 369 366 365 365 365 364 363 363 362 363 362 362 361 362 361 362 361 362 361 361 362 360 359 359 355 350 347 350 357 356 354 353 354 355
361 365 370 372 371 370 370 370 369 368 367 366 365 365 364 364 363 362 362 362 362 362 361 362 362 361 361 361 362 360 360 358 358 351 350 351 346 356 357 355 356 356 356
360 364 367 371 372 372 371 370 368 368 367 366 365 365 364 364 363 362 361 361 361 360 361 361 360 360 358 361 363 361 360 358 353 353 351 349 347 358 356 357 357 354 355
358 363 365 370 371 371 370 368 368 367 366 365 364 363 364 363 362 362 362 360 360 360 360 362 361 360 359 359 360 360 359 357 355 351 350 349 354 360 358 358 358 354 355
359 360 362 363 365 368 367 367 367 366 365 364 364 365 364 363 363 362 363 363 361 359 356 360 360 361 361 361 360 359 358 357 351 351 350 351 357 360 359 359 358 355 354
356 358 358 357 358 359 361 367 366 366 364 364 364 365 364 364 363 363 365 365 361 361 359 358 361 361 361 363 362 361 359 356 351 350 352 350 358 360 359 357 356 357 356
353 354 356 356 356 357 359 361 366 364 364 365 365 364 364 355 357 360 362 361 360 359 359 359 359 362 362 361 362 361 360 353 351 349 349 357 359 362 358 357 357 355 355
347 350 354 354 354 356 360 357 358 357 356 355 356 355 354 354 354 358 360 360 361 361 360 361 361 360 360 353 352 359 353 351 347 349 349 356 358 364 361 360 360 357 356
347 350 352 353 354 354 356 355 355 355 355 355 355 354 354 356 354 354 353 354 354 358 353 358 356 356 352 351 350 351 350 350 346 349 349 357 359 362 361 360 360 358 357
348 349 352 353 355 355 356 356 356 356 355 355 353 353 353 349 344 348 351 350 350 350 350 350 350 345 343 347 345 348 349 348 346 350 350 356 358 361 363 361 360 358 359
348 351 352 354 354 354 354 351 350 346 351 352 350 352 350 344 345 347 348 348 349 350 347 342 343 344 340 341 343 343 345 348 348 349 350 355 358 358 362 362 361 359 358
348 349 353 353 353 353 352 347 342 338 344 346 342 344 349 348 346 346 340 340 339 345 343 340 339 338 338 338 341 340 340 343 348 349 350 350 358 359 360 363 363 361 360
347 350 354 352 353 351 348 348 347 342 344 343 341 341 337 343 348 346 342 340 340 339 343 339 338 337 335 336 337 338 340 343 349 350 349 350 351 359 358 360 362 362 360
349 350 352 357 351 350 349 350 351 350 345 343 341 340 342 342 350 348 346 344 343 342 341 339 337 335 332 331 332 336 340 343 345 349 350 350 351 351 356 359 359 360 362
350 350 350 353 349 348 347 347 347 349 348 348 344 341 345 349 352 350 349 348 345 343 339 337 337 332 331 332 332 336 339 343 346 350 350 349 349 352 351 356 358 358 359
350 349 348 347 347 345 344 345 346 343 345 348 344 344 345 340 344 343 345 344 342 342 338 336 333 332 332 335 343 345 343 343 343 343 347 349 350 349 350 350 350 352 358
350 348 346 342 340 342 335 336 337 338 342 345 344 341 338 337 340 334 339 344 343 341 340 339 335 332 333 337 335 333 334 340 340 339 343 346 347 347 348 350 347 348 350
348 346 342 340 337 337 336 335 336 340 343 347 346 343 343 343 340 338 343 343 342 340 338 338 339 335 337 340 332 327 322 329 336 341 342 345 346 346 348 349 349 348 347
349 345 342 340 338 337 336 342 342 342 342 339 340 342 344 347 346 344 341 340 339 339 337 337 337 335 332 335 337 329 324 323 328 333 338 342 344 342 344 346 347 349 348
348 346 344 342 340 339 340 339 341 337 337 338 340 340 341 343 342 343 342 342 340 340 338 338 340 337 334 331 336 340 338 334 327 325 331 336 341 342 342 343 344 347 347
350 347 344 342 341 343 339 337 336 339 340 340 338 336 338 340 342 344 343 341 339 339 340 338 338 337 335 333 331 333 335 334 334 330 325 329 335 339 341 341 343 345 344
349 345 344 340 340 340 339 339 342 339 337 337 335 335 336 338 338 340 343 341 340 339 338 339 339 337 336 335 335 335 334 330 329 331 328 328 326 330 336 338 339 340 341
Wind_Speed
7 7 11 12 14 15 14 14 15 16 16 15 14 14 13 13 14 15 14 13 13 14 12 10 9 10 12 13 13 14 15 15 17 17 18 17 17 16 17 18 15 11 16
12 9 13 13 15 16 15 15 16 15 15 15 14 14 13 13 12 12 12 11 11 10 11 10 9 9 10 12 12 13 15 15 16 18 17 16 15 14 16 17 16 12 15
12 11 12 15 16 16 15 15 15 15 15 14 13 13 13 12 12 12 10 10 8 9 7 9 10 10 10 12 12 12 13 14 15 16 15 4 5 12 15 16 16 15 15
12 10 11 15 16 16 15 15 15 15 15 15 14 14 13 12 12 11 11 9 8 6 7 7 9 10 10 11 12 12 12 12 13 15 6 5 10 16 14 15 15 15 15
11 11 12 15 15 16 15 14 14 14 15 14 13 12 12 12 11 10 9 8 7 6 5 6 8 9 10 11 12 12 11 13 14 12 5 5 5 12 15 14 15 14 14
13 12 15 17 17 16 15 14 14 14 14 14 13 12 12 10 10 9 8 7 6 6 5 6 6 8 8 11 11 10 10 10 9 3 4 8 6 14 15 14 14 14 14
12 12 13 16 16 16 15 15 15 14 14 13 13 12 11 10 9 7 6 6 6 6 5 6 6 6 6 10 10 8 8 8 5 5 5 5 6 15 16 15 14 14 14
15 11 12 17 16 16 16 15 15 14 13 12 11 11 10 9 8 7 6 5 6 5 5 6 8 7 6 6 7 7 8 7 4 3 6 6 9 14 16 15 15 13 13
11 11 9 10 14 16 15 15 14 14 13 12 11 10 10 9 8 8 7 7 7 6 5 6 6 8 8 7 7 5 5 5 4 2 9 5 11 14 16 16 16 14 13
10 9 9 6 6 7 7 14 14 13 13 12 11 9 9 9 8 7 6 6 7 7 6 6 7 7 7 8 9 7 5 3 2 2 4 6 15 16 15 15 15 15 14
7 8 8 8 7 8 7 9 11 14 13 13 11 9 6 1 4 5 5 6 6 6 7 7 7 8 8 8 8 9 7 2 2 3 3 11 16 17 17 16 15 15 14
10 9 9 10 9 8 7 6 6 5 3 3 4 4 3 4 4 5 7 8 8 8 8 8 8 7 6 2 2 6 1 3 3 3 3 13 16 16 16 16 16 16 15
14 9 9 9 8 7 6 4 2 3 3 3 4 5 5 4 3 3 2 3 3 7 3 4 4 2 3 3 3 3 3 2 3 3 5 14 14 16 17 17 16 16 16
11 12 10 9 10 7 4 4 4 3 4 5 4 4 4 3 2 1 2 2 2 2 3 4 2 3 3 3 3 4 4 3 3 2 5 10 15 16 17 18 17 17 17
13 11 13 10 7 6 6 4 3 2 2 3 4 5 3 4 3 1 2 3 4 3 4 4 4 4 4 4 4 4 2 4 4 3 3 15 16 16 17 18 18 18 18
12 9 9 8 7 7 5 4 4 2 3 2 3 4 5 3 4 4 4 4 4 4 4 4 5 5 4 4 4 4 4 4 4 5 3 5 15 15 17 17 18 19 19
10 8 10 9 9 8 6 5 4 4 4 4 4 5 6 6 5 5 4 4 5 4 5 4 4 3 3 2 5 4 3 6 4 5 5 4 5 12 16 17 19 19 19
10 11 8 8 8 8 7 5 3 3 3 4 4 4 4 5 7 5 4 5 5 4 4 3 3 3 4 4 4 5 5 5 5 5 5 5 5 6 11 17 18 19 19
12 11 8 8 10 7 6 5 2 2 1 3 4 4 6 7 6 4 3 4 4 3 4 3 3 3 3 4 4 4 4 6 4 4 6 6 8 7 6 12 20 19 20
8 8 7 6 10 7 4 4 2 2 2 2 2 1 3 1 3 3 3 3 3 3 3 3 5 4 4 4 2 3 3 5 3 3 6 6 7 6 6 6 6 11 21
10 9 8 9 5 7 2 1 1 0 0 2 2 3 4 4 5 3 2 3 4 4 5 7 4 5 4 4 0 2 2 3 5 7 6 7 5 6 6 5 4 3 6
12 8 8 9 7 5 3 2 2 2 1 2 3 5 6 5 5 4 3 4 3 2 3 4 5 3 3 5 3 3 4 4 3 7 5 5 8 5 5 6 5 6 5
10 10 9 8 7 7 4 3 2 2 1 2 2 2 3 3 4 3 1 3 5 2 4 3 4 6 4 4 4 5 2 3 2 2 3 5 7 4 4 4 6 6 7
7 8 7 7 7 5 5 3 3 3 2 2 0 2 4 6 6 4 3 3 3 3 4 4 4 4 4 4 2 5 2 4 4 4 2 3 3 4 5 4 4 4 3
11 9 7 7 6 4 5 3 2 2 0 2 3 4 5 6 7 5 4 4 4 4 4 4 4 4 4 3 3 3 6 5 2 3 2 5 2 2 2 3 2 2 3
9 8 7 7 6 4 3 3 4 5 4 3 4 5 3 3 3 5 4 4 5 4 3 3 3 4 4 4 4 4 4 3 3 3 2 3 3 3 4 4 4 3 4
Wind_Direction
164 153 144 137 136 135 133 121 113 110 109 109 109 106 104 106 111 115 119 122 124 127 129 129 124 126 123 126 124 124 123 125 123 122 121 118 119 124 118 116 115 112 115
135 141 132 129 134 140 131 122 123 123 121 119 116 112 110 111 115 114 119 121 125 128 134 134 129 130 130 128 126 128 129 129 128 125 120 118 124 131 125 122 118 117 113
132 137 134 136 137 135 134 133 128 125 124 122 119 117 116 118 122 117 113 118 127 127 137 148 148 145 145 136 132 130 131 131 126 123 117 104 116 139 122 127 127 126 126
132 129 135 139 139 137 134 132 133 133 133 132 130 126 122 119 126 127 125 124 122 120 135 154 168 155 156 146 136 139 143 133 127 124 124 128 120 127 133 131 134 124 124
130 131 137 137 139 138 138 137 137 134 134 135 132 129 128 131 132 130 128 125 121 124 132 142 161 159 170 156 144 151 152 148 154 139 136 124 121 136 137 139 136 134 137
137 134 135 137 140 141 139 138 138 139 142 144 142 140 136 136 137 140 137 135 136 137 156 151 156 163 167 152 154 165 154 153 156 161 160 154 144 149 148 147 150 138 130
142 139 136 139 140 141 141 142 144 148 150 149 145 143 143 147 147 150 147 152 157 148 153 151 163 160 172 157 161 170 166 161 156 192 169 149 161 155 156 159 150 148 146
147 141 143 142 142 143 146 149 147 148 147 149 151 150 148 149 158 169 161 170 170 157 147 148 160 158 172 171 167 166 181 175 162 136 148 153 179 167 161 158 155 157 155
142 136 139 144 145 146 149 150 151 152 153 157 161 162 159 159 165 167 173 175 183 179 171 157 162 162 176 183 174 183 194 181 111 275 159 160 182 173 164 162 163 163 166
139 138 143 142 136 136 152 159 157 159 161 164 170 170 169 171 175 187 186 198 201 194 186 176 172 172 182 191 177 187 205 161 132 166 155 174 177 177 173 172 171 172 173
142 150 153 144 151 157 155 161 165 168 169 170 171 175 180 168 193 199 191 214 219 226 215 199 191 176 183 205 205 198 189 152 231 189 192 192 183 180 181 181 178 178 181
166 174 171 163 168 163 162 166 159 172 160 165 154 170 180 202 214 200 214 221 225 224 219 216 203 189 189 222 239 223 206 182 192 217 222 213 186 187 186 185 185 184 186
176 174 178 172 169 164 165 155 162 153 170 176 193 195 197 198 243 220 197 236 204 227 235 219 210 178 195 197 231 232 232 220 246 183 230 213 193 198 194 192 193 191 192
180 183 178 181 170 167 153 166 176 184 197 169 214 206 176 192 223 217 186 172 232 218 195 231 197 147 137 190 218 230 250 229 224 228 214 222 197 206 206 200 200 200 200
182 184 184 175 168 159 157 158 147 143 249 298 161 203 182 229 216 177 154 146 205 230 183 197 182 189 186 201 183 177 182 242 232 224 207 215 215 205 210 209 210 208 208
182 182 162 164 148 153 154 130 150 194 248 235 228 202 234 221 224 178 177 185 205 192 188 189 199 196 207 196 242 214 217 255 260 225 224 214 224 212 217 212 215 215 213
178 165 164 158 158 148 139 151 176 196 198 226 222 222 233 234 225 187 183 206 214 209 198 191 213 201 230 200 237 248 256 259 224 233 228 210 221 236 217 217 218 218 217
153 165 160 166 143 139 152 158 182 206 212 215 246 244 243 234 223 200 189 211 210 212 190 194 213 220 200 191 212 224 233 243 238 232 215 209 206 220 224 223 224 222 219
165 149 162 138 129 136 135 124 162 332 303 249 228 226 244 235 227 186 232 240 232 205 191 201 229 214 230 209 229 227 231 241 209 240 231 211 214 216 212 224 225 227 226
136 124 104 98 126 112 118 123 123 308 58 174 197 231 169 281 228 173 216 239 184 199 197 191 208 206 212 220 247 261 243 245 261 246 247 238 221 210 216 221 237 229 227
115 114 122 125 122 126 103 134 126 253 60 223 216 259 263 222 209 213 244 240 205 190 209 212 207 215 218 197 19 313 301 269 246 242 232 242 224 222 210 210 213 232 233
132 117 115 130 151 143 138 182 162 130 256 265 203 213 220 221 216 210 262 282 256 233 235 210 195 207 218 175 141 83 316 329 294 233 226 218 223 219 213 215 207 223 215
137 134 138 159 162 162 168 115 95 69 350 351 301 315 359 343 351 47 3 316 292 228 257 231 211 192 188 205 206 139 167 233 337 344 252 223 221 203 211 219 219 221 216
130 132 134 146 160 159 173 143 123 143 187 219 109 4 41 70 63 46 18 330 317 293 248 243 215 208 172 176 211 244 177 166 182 326 321 291 198 200 223 233 222 235 170
137 137 133 140 138 154 142 147 136 109 76 75 45 59 52 35 36 16 10 343 311 286 280 258 246 219 198 189 175 146 222 233 186 130 280 309 303 254 286 269 240 210 133
130 131 136 136 144 168 175 175 131 113 77 67 52 60 42 18 356 5 359 356 332 302 263 275 245 231 233 206 187 182 162 164 197 156 144 275 269 333 42 24 54 86 140